Simultaneous Nadir Overpasses (SNOs) Predictions

Prediction of SNOs between AQUA and METOP-B Satellite Orbit:

Table of predicted SNOs for the next 14.0 days since TLE Epoch: 7/5/2014
Index Date (AQUA) Time (AQUA) Lat,Lon (AQUA) SZA (AQUA ) Date (METOP-B) Time (METOP-B) Lat,Lon (METOP-B) SZA (METOP-B ) Distance(km) Time Diff (sec)
1 07/07/2014 18:30:27 -73.76, 76.84 128.72 07/07/2014 18:29:38 -73.75, 76.86 128.73 1.86 49
2 07/07/2014 19:19:56 73.84,-115.69 51.36 07/07/2014 19:20:17 73.81,-115.67 51.33 3.63 21
3 07/10/2014 14:04:42 -73.78, 143.25 128.37 07/10/2014 14:03:58 -73.75, 143.28 128.39 2.58 44
4 07/10/2014 14:54:10 73.80, -49.17 51.67 07/10/2014 14:54:37 73.81, -49.26 51.67 2.78 27
5 07/13/2014 09:38:55 -73.76,-150.28 128.00 07/13/2014 09:38:17 -73.76,-150.30 128.00 1.05 38
6 07/13/2014 10:28:24 73.85, 17.17 52.10 07/13/2014 10:28:55 73.85, 17.25 52.10 2.47 31
7 07/16/2014 05:13:09 -73.77, -83.86 127.55 07/16/2014 05:12:37 -73.75, -83.90 127.56 2.76 32
8 07/16/2014 06:02:37 73.81, 83.69 52.50 07/16/2014 06:03:15 73.84, 83.63 52.52 3.20 38
9 07/19/2014 00:47:22 -73.76, -17.39 127.08 07/19/2014 00:46:56 -73.79, -17.39 127.04 3.48 26
10 07/19/2014 01:36:51 73.85, 150.04 53.04 07/19/2014 01:37:34 73.87, 150.12 53.04 3.06 43




NCC Satellite Simultaneous Nadir Overpasses (SNOs) Prediction Service
